Volver al catálogo

FENGYUN 1C DEB

ActivoSSO
NORAD 30943·DEBRIS·🇨🇳 China

Lanzado May 10, 1999 desde Taiyuan Satellite Launch Center

Loading…

Próximos Pases (próximas 24 horas)

TLE

EnvejeciendoSource: Space-Track

Época: Sep 6, 2026, 05:58 UTC

1 30943U 99025BAH 26249.24884344  .00000464  00000-0  31273-3 0  9997
2 30943  98.7908 259.8062 0050518  36.8385 323.6236 14.04701003994979

Sigue FENGYUN 1C DEB en tiempo real con AllMySat

Download on the App Store